When you browse on this site, cookies collect data to enhance your experience and personalize the content and advertising you see.
Visit our Privacy Policy to learn more. By continuing to use the site, you agree to this use of cookies and data.
  • In Österreich
  • Länderverzeichnis
  • Für 7 Tage
  • Wassertemperatur
  • Wetterkarte
  • News
  • Widgets
  • user-avatar
    Anmelden

    Stündliche Wetter El Arenal

    Heute, 7 Dezember, Samstag

    Zeit Temperatur Niederschläge Wind Luftdruck Luftfeuchtigkeit
    00:00 +10°C° 0 mm 1 m/S 591 mmHg 89%
    01:00 +10°C° 0 mm 1 m/S 591 mmHg 87%
    02:00 +10°C° 0 mm 1 m/S 591 mmHg 85%
    03:00 +9°C° 0 mm 1 m/S 591 mmHg 85%
    04:00 +9°C° 0 mm 1 m/S 591 mmHg 85%
    05:00 +9°C° 0 mm 1 m/S 591 mmHg 85%
    06:00 +10°C° 0 mm 1 m/S 592 mmHg 79%
    07:00 +10°C° 0 mm 1 m/S 592 mmHg 74%
    08:00 +11°C° 0 mm 1 m/S 593 mmHg 69%
    09:00 +13°C° 0 mm 1 m/S 593 mmHg 60%
    10:00 +15°C° 0 mm 1 m/S 594 mmHg 50%
    11:00 +18°C° 0 mm 1 m/S 594 mmHg 41%
    12:00 +18°C° 0 mm 2 m/S 594 mmHg 40%
    13:00 +19°C° 0 mm 2 m/S 593 mmHg 39%
    14:00 +20°C° 0 mm 3 m/S 593 mmHg 38%
    15:00 +18°C° 0 mm 3 m/S 593 mmHg 49%
    16:00 +17°C° 0 mm 3 m/S 592 mmHg 59%
    17:00 +15°C° 0 mm 2 m/S 591 mmHg 69%
    18:00 +14°C° 0 mm 2 m/S 592 mmHg 76%
    19:00 +14°C° 0 mm 2 m/S 592 mmHg 83%
    20:00 +13°C° 0 mm 1 m/S 592 mmHg 89%
    21:00 +12°C° 0 mm 1 m/S 592 mmHg 90%
    22:00 +11°C° 0 mm 0 m/S 591 mmHg 91%
    23:00 +10°C° 0 mm 0 m/S 591 mmHg 92%

    Morgen, 8 Dezember, Sonntag

    Zeit Temperatur Niederschläge Wind Luftdruck Luftfeuchtigkeit
    00:00 +10°C° 0 mm 0 m/S 590 mmHg 93%
    01:00 +9°C° 0 mm 0 m/S 590 mmHg 93%
    02:00 +9°C° 0 mm 0 m/S 589 mmHg 94%
    03:00 +9°C° 0 mm 0 m/S 589 mmHg 94%
    04:00 +8°C° 0 mm 0 m/S 589 mmHg 94%
    05:00 +9°C° 0 mm 1 m/S 589 mmHg 93%
    06:00 +11°C° 0 mm 1 m/S 590 mmHg 84%
    07:00 +13°C° 0 mm 1 m/S 591 mmHg 75%
    08:00 +14°C° 0 mm 1 m/S 592 mmHg 66%
    09:00 +16°C° 0 mm 1 m/S 592 mmHg 55%
    10:00 +19°C° 0 mm 1 m/S 592 mmHg 43%
    11:00 +21°C° 0 mm 1 m/S 593 mmHg 32%
    12:00 +21°C° 0 mm 2 m/S 592 mmHg 30%
    13:00 +23°C° 0 mm 2 m/S 592 mmHg 29%
    14:00 +22°C° 0 mm 3 m/S 592 mmHg 28%
    15:00 +20°C° 0 mm 2 m/S 591 mmHg 35%
    16:00 +19°C° 0 mm 2 m/S 590 mmHg 43%
    17:00 +17°C° 0 mm 2 m/S 590 mmHg 50%
    18:00 +16°C° 0 mm 1 m/S 590 mmHg 57%
    19:00 +15°C° 0 mm 1 m/S 589 mmHg 64%
    20:00 +13°C° 0 mm 0 m/S 589 mmHg 70%
    21:00 +12°C° 0 mm 0 m/S 589 mmHg 69%
    22:00 +12°C° 0 mm 0 m/S 589 mmHg 67%
    23:00 +11°C° 0 mm 0 m/S 589 mmHg 66%

    übermorgen, 9 Dezember, Montag

    Zeit Temperatur Niederschläge Wind Luftdruck Luftfeuchtigkeit
    00:00 +11°C° 0 mm 0 m/S 588 mmHg 65%
    01:00 +10°C° 0 mm 0 m/S 588 mmHg 65%
    02:00 +10°C° 0 mm 0 m/S 587 mmHg 64%
    03:00 +11°C° 0 mm 1 m/S 587 mmHg 65%
    04:00 +10°C° 0 mm 1 m/S 587 mmHg 65%
    05:00 +10°C° 0 mm 1 m/S 587 mmHg 66%
    06:00 +12°C° 0 mm 1 m/S 589 mmHg 58%
    07:00 +14°C° 0 mm 1 m/S 590 mmHg 50%
    08:00 +18°C° 0 mm 1 m/S 591 mmHg 43%
    09:00 +19°C° 0 mm 1 m/S 591 mmHg 36%
    10:00 +21°C° 0 mm 1 m/S 592 mmHg 29%
    11:00 +23°C° 0 mm 1 m/S 592 mmHg 22%
    12:00 +24°C° 0 mm 1 m/S 591 mmHg 20%
    13:00 +24°C° 0 mm 1 m/S 591 mmHg 19%
    14:00 +25°C° 0 mm 1 m/S 591 mmHg 17%
    15:00 +23°C° 0 mm 1 m/S 590 mmHg 23%
    16:00 +21°C° 0 mm 1 m/S 589 mmHg 29%
    17:00 +19°C° 0 mm 1 m/S 588 mmHg 35%
    18:00 +18°C° 0 mm 1 m/S 588 mmHg 39%
    19:00 +16°C° 0 mm 1 m/S 588 mmHg 43%
    20:00 +15°C° 0 mm 1 m/S 588 mmHg 47%
    21:00 +15°C° 0 mm 1 m/S 588 mmHg 47%
    22:00 +14°C° 0 mm 1 m/S 588 mmHg 47%
    23:00 +14°C° 0 mm 1 m/S 588 mmHg 46%

    10 Dezember, Dienstag

    Zeit Temperatur Niederschläge Wind Luftdruck Luftfeuchtigkeit
    00:00 +14°C° 0 mm 1 m/S 588 mmHg 49%
    01:00 +13°C° 0 mm 2 m/S 588 mmHg 52%
    02:00 +13°C° 0 mm 2 m/S 587 mmHg 55%
    03:00 +13°C° 0 mm 2 m/S 587 mmHg 58%
    04:00 +12°C° 0 mm 2 m/S 587 mmHg 61%
    05:00 +12°C° 0 mm 2 m/S 587 mmHg 64%
    06:00 +14°C° 0 mm 1 m/S 588 mmHg 59%
    07:00 +15°C° 0 mm 1 m/S 590 mmHg 54%
    08:00 +18°C° 0 mm 1 m/S 591 mmHg 50%
    09:00 +20°C° 0 mm 1 m/S 591 mmHg 44%
    10:00 +22°C° 0 mm 1 m/S 592 mmHg 39%
    11:00 +21°C° 0 mm 0 m/S 592 mmHg 33%
    12:00 +24°C° 0 mm 1 m/S 592 mmHg 31%
    13:00 +24°C° 0 mm 1 m/S 592 mmHg 29%
    14:00 +25°C° 0 mm 1 m/S 592 mmHg 26%
    15:00 +23°C° 0 mm 2 m/S 591 mmHg 41%
    16:00 +19°C° 0 mm 3 m/S 591 mmHg 56%
    17:00 +17°C° 0 mm 3 m/S 590 mmHg 71%
    18:00 +16°C° 0 mm 3 m/S 590 mmHg 76%
    19:00 +14°C° 0 mm 3 m/S 591 mmHg 81%
    20:00 +13°C° 0 mm 3 m/S 591 mmHg 85%
    21:00 +13°C° 0 mm 3 m/S 591 mmHg 85%
    22:00 +14°C° 0 mm 2 m/S 591 mmHg 84%
    23:00 +13°C° 0 mm 2 m/S 591 mmHg 84%

    11 Dezember, Mittwoch

    Zeit Temperatur Niederschläge Wind Luftdruck Luftfeuchtigkeit
    00:00 +13°C° 0 mm 2 m/S 591 mmHg 86%
    01:00 +12°C° 0 mm 2 m/S 591 mmHg 88%
    02:00 +12°C° 0 mm 2 m/S 590 mmHg 90%
    03:00 +10°C° 0 mm 2 m/S 591 mmHg 90%
    04:00 +10°C° 0 mm 2 m/S 591 mmHg 89%
    05:00 +10°C° 0 mm 2 m/S 591 mmHg 88%
    06:00 +10°C° 0 mm 2 m/S 591 mmHg 86%
    07:00 +12°C° 0 mm 2 m/S 592 mmHg 85%
    08:00 +12°C° 0 mm 2 m/S 592 mmHg 83%
    09:00 +12°C° 0 mm 2 m/S 592 mmHg 79%
    10:00 +13°C° 0 mm 2 m/S 592 mmHg 75%
    11:00 +12°C° 0 mm 3 m/S 592 mmHg 71%
    12:00 +13°C° 0 mm 3 m/S 592 mmHg 69%
    13:00 +13°C° 0 mm 3 m/S 591 mmHg 68%
    14:00 +13°C° 0 mm 3 m/S 591 mmHg 66%
    15:00 +12°C° 0 mm 3 m/S 591 mmHg 71%
    16:00 +11°C° 0 mm 3 m/S 590 mmHg 76%
    17:00 +10°C° 0 mm 3 m/S 590 mmHg 80%
    18:00 +10°C° 0 mm 2 m/S 591 mmHg 82%
    19:00 +10°C° 0 mm 2 m/S 591 mmHg 83%
    20:00 +9°C° 0 mm 2 m/S 591 mmHg 85%
    21:00 +10°C° 0 mm 1 m/S 591 mmHg 85%
    22:00 +10°C° 0 mm 1 m/S 591 mmHg 86%
    23:00 +10°C° 0 mm 1 m/S 591 mmHg 86%

    12 Dezember, Donnerstag

    Zeit Temperatur Niederschläge Wind Luftdruck Luftfeuchtigkeit
    00:00 +9°C° 0 mm 0 m/S 591 mmHg 88%
    01:00 +8°C° 0 mm 0 m/S 590 mmHg 89%
    02:00 +8°C° 0 mm 0 m/S 590 mmHg 91%
    03:00 +8°C° 0 mm 0 m/S 589 mmHg 91%
    04:00 +8°C° 0 mm 0 m/S 589 mmHg 91%
    05:00 +8°C° 0 mm 0 m/S 589 mmHg 91%
    06:00 +9°C° 0 mm 0 m/S 590 mmHg 84%
    07:00 +11°C° 0 mm 0 m/S 591 mmHg 77%
    08:00 +12°C° 0 mm 0 m/S 592 mmHg 70%
    09:00 +15°C° 0 mm 1 m/S 592 mmHg 62%
    10:00 +18°C° 0 mm 1 m/S 593 mmHg 55%
    11:00 +20°C° 0 mm 1 m/S 593 mmHg 48%
    12:00 +19°C° 0 mm 2 m/S 593 mmHg 45%
    13:00 +20°C° 0 mm 2 m/S 592 mmHg 42%
    14:00 +21°C° 0 mm 3 m/S 592 mmHg 40%
    15:00 +19°C° 0 mm 2 m/S 591 mmHg 47%
    16:00 +18°C° 0 mm 2 m/S 591 mmHg 55%
    17:00 +16°C° 0 mm 2 m/S 590 mmHg 62%
    18:00 +16°C° 0 mm 1 m/S 590 mmHg 66%
    19:00 +15°C° 0 mm 1 m/S 591 mmHg 70%
    20:00 +13°C° 0 mm 0 m/S 591 mmHg 75%
    21:00 +13°C° 0 mm 0 m/S 591 mmHg 73%
    22:00 +13°C° 0 mm 0 m/S 591 mmHg 71%
    23:00 +13°C° 0 mm 0 m/S 591 mmHg 69%
    Mehr zeigen